Погода в Даде

Россия / Хабаровский край     49°10′08″N   136°28′16″E
темп.,
°C
ветер,
м/с
пор.,
м/с
влажн.,
%
обл.,
%
осадки,
мм/ч
давл.,
гПа
погр.,
м
26 января, ср
ср2601:00−25всв00100100 0.0 10249
04:00−26ссв11100100 0.0 10239
07:00−26с1110098 0.0 10239
10:00−22зюз0199100 0.1 102459
13:00−18з119498 0.0 1023207
16:00−18з119466 0.1 1022139
19:00−24с1110022 0.0 10239
22:00−26всв0010077 0.0 10249
27 января, чт
чт2701:00−27с0010098 0.0 10249
04:00−27юз0010099 0.1 10259
07:00−25юв0010097 0.1 102412
10:00−22юз1198100 0.1 102488
13:00−18юз2493100 0.1 1024308
16:00−16зюз2490100 0.1 1022384
19:00−18зюз2498100 0.2 102296
22:00−19ююз3798100 0.4 1021225
28 января, пт
пт2801:00−21ююз2699100 0.2 1020168
04:00−22ююз15100100 0.4 1019119
07:00−21юз2899100 0.3 1017259
10:00−22юз4997100 0.4 1017320
13:00−19юз4693100 0.3 1015505
16:00−18зюз3592100 0.6 1014529
19:00−20з1199100 0.3 101312
22:00−21ююз11100100 0.4 101318
29 января, сб
сб2901:00−22ю00100100 0.1 101210
04:00−21ююв00100100 0.2 101211
07:00−22ююз249991 0.1 101299
10:00−25ююз249895 0.1 1013134
13:00−20юз3491100 0.1 1013468
16:00−20юз349091 0.1 1013386
19:00−28ююз2210015 0.0 101311
22:00−29ю2510072 0.0 101462
30 января, вс
вс3001:00−30ю2510099 0.0 101568
04:00−27ю2798100 0.0 1016116
07:00−27ююз2699100 0.0 1017127
10:00−26ююз3697100 0.0 1019166
13:00−22юз349298 0.0 1020322
16:00−21зюз229056 0.0 1021226
19:00−28з111005 0.0 10229
22:00−31юв1110038 0.0 10239